Flag for Belgium Weather past 2 weeks in Charleroi, Belgium

Now
34 °F

Fog.


Feels Like: 27 °F
Forecast: 32 / 36 °F
Wind: 8 mph from West

Location: Charleroi / Gosselies

Current Time: Feb 1, 2015 at 1:59:04 AM

Latest Report: Feb 1, 2015 at 1:20 AM


Visibility: 1 mi

Pressure: 29.15 "Hg

Humidity: 93%

Dew point: 32 °F

Location of CharleroiLocation

Historic Weather in Charleroi — Graph

°F

Charleroi temperature yesterday

Maximum temperature yesterday: 36 °F (at 3:50 PM)
Minimum temperature yesterday: 30 °F (at 6:50 AM)
Average temperature yesterday: 33 °F

Past Weeks' High & Low Weather Summary

 TemperatureHumidityPressure
High46 °F (Jan 26, 3:50 PM)100% (Jan 17, 12:20 AM)30.45 "Hg (Jan 17, 12:20 AM)
Low25 °F (Jan 22, 3:20 AM)70% (Jan 18, 1:50 PM)28.74 "Hg (Jan 29, 10:20 PM)
Average34 °F90%29.83 "Hg
* Reported Jan 17 12:20 AM — Feb 1 12:50 AM, Charleroi, Weather by CustomWeather, © 2014

Note: Actual official high and low records may vary slightly from our data, if they occured in-between our weather recording intervals... More about our weather records

Advertising

Charleroi weather history for previous 24 hours

 ConditionsComfort  
Time TempWeatherWind HumidityBarometerVisibility
12:50 AM
Feb 1
34 °FFog.8 mph93%29.15 "Hg1 mi
12:20 AM34 °FFog.8 mph93%29.15 "Hg1 mi
11:50 PM
Jan 31
34 °FFog.7 mph93%29.15 "Hg2 mi
11:20 PM34 °FFog.5 mph93%29.15 "Hg2 mi
10:50 PM34 °FFog.6 mph93%29.12 "Hg1 mi
10:20 PM34 °FFog.5 mph93%29.12 "Hg1 mi
9:50 PM34 °FFog.3 mph93%29.12 "Hg2 mi
9:20 PM34 °FFog.2 mph93%29.12 "Hg2 mi
8:50 PM34 °FPartly cloudy.3 mph93%29.12 "Hg5 mi
8:20 PM34 °FPassing clouds.3 mph93%29.09 "HgN/A
7:50 PM34 °FPartly cloudy.3 mph93%29.09 "HgN/A
7:20 PM34 °FPassing clouds.2 mph93%29.09 "HgN/A
6:50 PM34 °FPassing clouds.5 mph87%29.06 "HgN/A
6:20 PM36 °FPassing clouds.7 mph87%29.06 "HgN/A
5:50 PM36 °FPassing clouds.5 mph87%29.06 "HgN/A
5:20 PM36 °FPartly sunny.6 mph87%29.03 "HgN/A
4:50 PM36 °FPartly sunny.6 mph81%29.03 "HgN/A
4:20 PM36 °FPartly sunny.7 mph87%29.03 "HgN/A
3:50 PM36 °FPartly sunny.9 mph87%29.03 "HgN/A
3:20 PM34 °FPartly sunny.7 mph93%29.00 "Hg6 mi
2:50 PM34 °FPartly sunny.7 mph93%29.00 "Hg6 mi
2:20 PM34 °FSprinkles. Partly sunny.9 mph93%29.00 "Hg6 mi
1:50 PM34 °FPartly sunny.8 mph93%29.00 "Hg6 mi
1:20 PM34 °FPartly sunny.9 mph93%29.00 "Hg5 mi
12:50 PM34 °FPartly sunny.12 mph93%29.00 "Hg5 mi
12:20 PM34 °FPartly sunny.9 mph93%29.00 "Hg4 mi
11:50 AM34 °FPartly sunny.10 mph93%29.00 "Hg4 mi
11:20 AM34 °FFog.10 mph87%29.00 "Hg3 mi
10:50 AM32 °FIce fog.10 mph93%29.00 "Hg2 mi
10:20 AM32 °FIce fog.10 mph93%29.00 "Hg2 mi
9:50 AM32 °FIce fog.12 mph93%29.00 "Hg2 mi
9:20 AM32 °FIce fog.9 mph93%29.00 "Hg2 mi
8:50 AM30 °FIce fog.6 mph100%28.97 "Hg2 mi
8:20 AM30 °FIce fog.7 mph100%28.97 "Hg2 mi
7:50 AM30 °FIce fog.7 mph100%28.97 "Hg2 mi
7:20 AM30 °FPassing clouds.7 mph100%28.97 "Hg4 mi
6:50 AM30 °FPassing clouds.8 mph100%28.94 "Hg4 mi
6:20 AM32 °FPassing clouds.6 mph93%28.94 "Hg4 mi
5:50 AM32 °FPassing clouds.8 mph93%28.94 "Hg4 mi
5:20 AM32 °FPassing clouds.9 mph93%28.94 "Hg4 mi
4:50 AM32 °FPassing clouds.9 mph93%28.94 "Hg5 mi
3:50 AM32 °FPassing clouds.9 mph93%28.94 "Hg6 mi
3:20 AM32 °FPassing clouds.9 mph93%28.94 "Hg6 mi
2:50 AM34 °FPassing clouds.9 mph87%28.94 "Hg6 mi
2:20 AM34 °FPassing clouds.10 mph87%28.94 "Hg6 mi
1:50 AM34 °FPassing clouds.12 mph87%28.94 "Hg6 mi
1:20 AM34 °FPassing clouds.12 mph93%28.91 "HgN/A
Weather by CustomWeather, © 2014

See weather overviewHow to use our weather pages